User: anonymous   Login
Location: ???????
(55.9142°N, 37.8256°E)
Time: 06:43:36
(UTC+00:00)
Language:

Cosmos 1666 Rocket - Orbit

View from above orbital plane
View from above orbital plane
View from above satellite
View from above satellite

Ground track
Ground track

The orbit data is extracted from the following two-line orbital elements,

1 15890U 85058B   24166.58137223  .00000696  00000-0  79221-4 0  9995
2 15890  82.5265  29.2953 0022044  76.6323 283.7348 14.84594623 82485
Epoch (UTC): 14 June 2024 13:57:10
Eccentricity: 0.0022044
inclination: 82.5265°
perigee height: 599 km
apogee height: 630 km
right ascension of ascending node: 29.2953°
argument of perigee: 76.6323°
revolutions per day: 14.84594623
mean anomaly at epoch: 283.7348°
orbit number at epoch: 8248

The dashed part of the orbit path shows where the satellite is in the earth's shadow,  

DLR